Meteo Giornale » Osservazioni meteo Stati Uniti (USA) » Cocoa-Patrick
ore: 19:55 - Osservazioni Meteo Cocoa-Patrick
Lat. 28° 14' N Lon. 80° 36' W Alt. 3 metri s.l.m.
27 °C
Sereno
Temp. 24 Ore
26 °C
31 °C
Nord/Nord-Est
13 Km/h
Dew point 24 °C
Umidità 83 %
Visibilità 10 Km
Il sole sorge alle ore 07:00
Il sole tramonta alle ore 19:44
| Data e Ora | Cielo e Fenomeni | T °C | DP °C | Um. % | Pres. hPa | Vis. km | Vento km/h | |
|---|---|---|---|---|---|---|---|---|
| Oggi h: 19:55 | Sereno | 27 | 24 | 83 | 1015 | 10 | N/NE 13 | |
| Oggi h: 18:55 | Pioviggine | 27 | 25 | 88 | 1015 | 10 | NE 13 | |
| Oggi h: 17:55 | Pioggia | 28 | 25 | 83 | 1015 | 10 | NE 24 | |
| Oggi h: 16:55 | Sereno | 29 | 25 | 79 | 1015 | 10 | N/NE 14.8 | |
| Oggi h: 15:55 | Sereno | 29 | 25 | 79 | 1015 | 10 | N/NE 16.7 | |
| Oggi h: 14:55 | Pioggia | 31 | 26 | 74 | 1016 | 10 | N/NE 20.3 | |
| Oggi h: 13:55 | Sereno | 31 | 26 | 74 | 1016 | 10 | NE 25.9 | |
| Oggi h: 12:55 | Sereno | 31 | 26 | 74 | 1016 | 10 | NE 20.3 | |
| Oggi h: 11:55 | Sereno | 31 | 26 | 74 | 1017 | 10 | E/NE 13 | |
| Oggi h: 10:55 | Pioviggine | 30 | 25 | 74 | 1017 | 10 | E/NE 11.1 | |
| Oggi h: 09:55 | Pioggia | 30 | 26 | 79 | 1016 | 10 | N 5.5 | |
| Oggi h: 08:55 | Sereno | 27 | 26 | 94 | 1016 | 10 | N/NE 7.4 | |
| Oggi h: 07:55 | Sereno | 27 | 25 | 88 | 1015 | 14 | N/NE 7.4 | |
| Oggi h: 06:55 | Sereno | 27 | 25 | 88 | 1015 | 10 | N 5.5 | |
| Oggi h: 05:55 | Pioggia | 27 | 25 | 88 | 1014 | 10 | O/NO 9.3 | |
| Oggi h: 04:55 | Sereno | 26 | 25 | 94 | 1014 | 10 | N 0 | |
| Oggi h: 03:55 | Sereno | 26 | 25 | 94 | 1014 | 10 | N 0 | |
| Oggi h: 02:55 | Pioggia | 27 | 24 | 83 | 1015 | 10 | N 5.5 | |
| Oggi h: 01:55 | Pioggia Foschia | 26 | 24 | 88 | 1015 | 8 | NE 11.1 | |
| Oggi h: 00:55 | Sereno | 27 | 25 | 88 | 1016 | 10 | N 0 | |
| Ieri h: 23:55 | Sereno | 27 | 25 | 88 | 1016 | 10 | N 0 | |
| Ieri h: 22:55 | Sereno | 26 | 25 | 94 | 1016 | 10 | N 5.5 | |
| Ieri h: 21:55 | Sereno | 27 | 25 | 88 | 1016 | 10 | N 5.5 | |
| Ieri h: 20:55 | Sereno | 27 | 24 | 83 | 1016 | 10 | NE 11.1 | |



